Retour au catalogue

KUIPER-00428

ActifCommunicationsVLEO
NORAD 69593·PAYLOAD·🇺🇸 United States

Lancé Jun 17, 2026 depuis Guiana Space Centre

Loading…

Prochains Passages (prochaines 24 heures)

TLE

FraisSource: CelesTrak SupGP

Époque: Sep 14, 2026, 19:53 UTC

1 69593C 26140B   26257.82863426  .00004013  00000+0  10603-3 0  2573
2 69593  51.8810 325.5246 0005414 250.8923   7.3623 15.37812463    19

Suivez KUIPER-00428 en temps réel avec AllMySat

Download on the App Store